GW5624 Weather Reports


Display with metric or nautical units.
time (UTC)temp
F
wind
direction
speed
MPH
gust
MPH
rain 1hr
in
rain 24hr
in
rain mn
in
humidity
%
barometer
mb
20260510153037 70 257 5.0 13.0 0.00 0.00 0.00 49 1015.4
20260510151520 69 300 2.0 12.0 0.00 0.00 0.00 52 1015.5
20260510150017 69 217 4.0 18.0 0.00 0.00 0.00 53 1015.5
20260510144522 69 253 1.0 8.0 0.00 0.00 0.00 59 1015.4
20260510143022 68 309 3.0 7.0 0.00 0.00 0.00 55 1015.3
20260510141523 67 176 2.0 10.0 0.00 0.00 0.00 60 1015.2
20260510140012 66 271 2.0 10.0 0.00 0.00 0.00 62 1015.2
20260510134518 64 140 4.0 9.0 0.00 0.00 0.00 64 1015.4
20260510133021 61 312 2.0 3.0 0.00 0.00 0.00 72 1015.4
20260510131523 58 134 0.0 3.0 0.00 0.00 0.00 74 1015.6
20260510130039 56 139 1.0 3.0 0.00 0.00 0.00 77 1015.5
20260510124513 54 131 0.0 3.0 0.00 0.00 0.00 79 1015.7
20260510123020 51 117 0.0 2.0 0.00 0.00 0.00 85 1015.6
20260510121523 48 120 1.0 2.0 0.00 0.00 0.00 88 1015.5
20260510120029 45 98 0.0 2.0 0.00 0.00 0.00 91 1015.4
20260510114524 43 96 0.0 1.0 0.00 0.00 0.00 93 1015.3
20260510113015 40 134 0.0 1.0 0.00 0.00 0.00 93 1015.2
20260510111523 37 137 0.0 1.0 0.00 0.00 0.00 93 1015.3
20260510110035 36 132 0.0 1.0 0.00 0.00 0.00 92 1015.1
20260510104526 35 118 0.0 1.0 0.00 0.00 0.00 92 1014.7
20260510103012 35 63 0.0 2.0 0.00 0.00 0.00 92 1014.6
20260510101530 35 126 0.0 0.0 0.00 0.00 0.00 92 1014.2
20260510100024 35 128 0.0 0.0 0.00 0.00 0.00 93 1014.2
20260510094525 34 294 0.0 0.0 0.00 0.00 0.00 91 1013.9
20260510093008 35 294 0.0 1.0 0.00 0.00 0.00 91 1013.6
20260510091516 35 55 0.0 3.0 0.00 0.00 0.00 92 1013.5
20260510090026 35 150 0.0 1.0 0.00 0.00 0.00 92 1013.2
20260510084523 35 96 0.0 0.0 0.00 0.00 0.00 92 1013.2
20260510083027 35 96 0.0 1.0 0.00 0.00 0.00 92 1013.1
20260510081529 35 96 0.0 1.0 0.00 0.00 0.00 92 1013.0
20260510080013 35 99 0.0 1.0 0.00 0.00 0.00 92 1013.1
20260510074520 35 73 0.0 3.0 0.00 0.00 0.00 92 1013.0
20260510073022 36 340 0.0 1.0 0.00 0.00 0.00 92 1013.1
20260510071526 36 340 0.0 1.0 0.00 0.00 0.00 91 1013.0
20260510070032 36 18 0.0 1.0 0.00 0.00 0.00 91 1012.8
20260510064529 36 136 0.0 0.0 0.00 0.00 0.00 91 1012.7
20260510063020 36 289 0.0 1.0 0.00 0.00 0.00 91 1012.8
20260510061525 37 134 0.0 1.0 0.00 0.00 0.00 91 1012.8
20260510060032 38 123 0.0 1.0 0.00 0.00 0.00 91 1012.9
20260510054531 38 281 0.0 1.0 0.00 0.00 0.00 90 1012.8
20260510053022 38 151 0.0 2.0 0.00 0.00 0.00 91 1012.7
20260510051522 38 26 0.0 0.0 0.00 0.00 0.00 91 1013.0
20260510050023 39 45 0.0 1.0 0.00 0.00 0.00 90 1012.8
20260510044527 39 328 0.0 3.0 0.00 0.00 0.00 90 1012.9
20260510043027 40 234 0.0 1.0 0.00 0.00 0.00 89 1013.0
20260510041526 40 232 0.0 3.0 0.00 0.00 0.00 88 1013.0
20260510040024 41 283 0.0 2.0 0.00 0.00 0.00 89 1013.0
20260510034527 42 335 0.0 3.0 0.00 0.00 0.00 90 1012.9
20260510033027 41 75 0.0 0.0 0.00 0.00 0.00 88 1012.7
20260510031528 43 76 0.0 0.0 0.00 0.00 0.00 89 1012.9
20260510030028 43 134 0.0 0.0 0.00 0.00 0.00 87 1012.9
20260510024521 44 134 0.0 0.0 0.00 0.00 0.00 88 1012.7
20260510023027 44 134 0.0 0.0 0.00 0.00 0.00 86 1012.7
20260510021530 45 134 0.0 0.0 0.00 0.00 0.00 85 1012.3
20260510020030 46 134 0.0 0.0 0.00 0.00 0.00 84 1012.1
20260510014527 46 134 0.0 0.0 0.00 0.00 0.00 83 1012.0
20260510013022 47 134 0.0 0.0 0.00 0.00 0.00 81 1011.5
20260510011528 49 137 0.0 0.0 0.00 0.00 0.00 80 1011.4
20260510010014 50 137 0.0 0.0 0.00 0.00 0.00 77 1011.3
20260510004516 53 224 0.0 0.0 0.00 0.00 0.00 73 1011.0
20260510003019 55 284 0.0 0.0 0.00 0.00 0.00 69 1010.7
20260510001523 57 284 0.0 0.0 0.00 0.00 0.00 65 1010.7
20260510000009 59 284 0.0 0.0 0.00 0.00 0.00 62 1010.5
20260509234523 63 284 1.0 6.0 0.00 0.00 0.00 53 1010.3
20260509233016 65 266 2.0 6.0 0.00 0.00 0.00 49 1010.1
20260509231520 67 278 1.0 4.0 0.00 0.00 0.00 47 1009.9
20260509230024 67 297 3.0 7.0 0.00 0.00 0.00 46 1010.0
20260509224521 67 265 3.0 6.0 0.00 0.00 0.00 48 1010.2
20260509223015 67 274 5.0 8.0 0.00 0.00 0.00 44 1010.3
20260509221518 67 287 6.0 13.0 0.00 0.00 0.00 44 1010.4
20260509220022 66 283 1.0 7.0 0.00 0.00 0.00 45 1010.2
20260509214524 67 309 3.0 10.0 0.00 0.00 0.00 46 1010.1
20260509213012 67 283 2.0 5.0 0.00 0.00 0.00 47 1009.9
20260509211515 69 313 6.0 10.0 0.00 0.00 0.00 40 1009.8
20260509210022 67 205 4.0 10.0 0.00 0.00 0.00 44 1009.7
20260509204523 66 217 5.0 9.0 0.00 0.00 0.00 43 1009.6
20260509203033 68 290 5.0 9.0 0.00 0.00 0.00 42 1009.3
20260509201515 69 285 4.0 9.0 0.00 0.00 0.00 44 1009.3
20260509200014 67 245 6.0 11.0 0.00 0.00 0.00 44 1009.2
20260509194522 67 267 5.0 9.0 0.00 0.00 0.00 41 1009.2
20260509193026 68 236 3.0 9.0 0.00 0.00 0.00 48 1009.1
20260509191528 68 287 5.0 12.0 0.00 0.00 0.00 45 1009.3
20260509190012 67 263 3.0 12.0 0.00 0.00 0.00 46 1009.3
20260509184529 67 261 5.0 11.0 0.00 0.00 0.00 48 1009.4
20260509183022 67 281 5.0 11.0 0.00 0.00 0.00 49 1009.4
20260509181504 69 232 5.0 13.0 0.00 0.00 0.00 48 1009.5
20260509180010 69 259 4.0 13.0 0.00 0.00 0.00 45 1009.5
20260509174515 68 235 5.0 11.0 0.00 0.00 0.00 48 1009.5
20260509173019 66 263 4.0 13.0 0.00 0.00 0.00 50 1009.6
20260509171522 65 210 4.0 8.0 0.00 0.00 0.00 46 1009.7
20260509170008 65 276 5.0 11.0 0.00 0.00 0.00 51 1010.1
20260509164512 64 226 3.0 9.0 0.00 0.00 0.00 49 1010.3
20260509163024 64 233 5.0 11.0 0.00 0.00 0.00 51 1010.4
20260509161522 63 222 3.0 12.0 0.00 0.00 0.00 54 1010.2
20260509160025 63 175 7.0 12.0 0.00 0.00 0.00 55 1010.1
20260509154516 63 243 2.0 6.0 0.00 0.00 0.00 56 1010.1